Find Starlink 31039

NORAD ID: 58784 Int'l Des: 2024-011 Owner: SPXS Country: US Constellation: starlink operational
LEOCIRCULAR

实时位置

正在加载3D地球...

关于 Starlink 31039

正在加载描述...

即将过境

Passes for default location (London). Set your location on the main map for personalized predictions.

高度历史

Loading altitude history...

两行轨道根数

1 58784U 24011V 26123.38853660 .00000623 00000-0 33153-4 0 9993
2 58784 53.1600 119.6851 0001330 83.1293 276.9859 15.30194998128649
Epoch: May 3, 2026 • Age: 8 hours

当前状态

高度 479.1 km
速度 7.63 km/s
星下点 -13.83°S, 10.31°W
发射日期 Jan 14, 2024
运行时间 2.2 years
类型 internet

技术详情

分类 Payload
质量 730.00 kg
干质量 700.00 kg
总质量 730.00 kg
长度 0.30 m
直径 4.10 m
跨度 29.00 m
形状 Box + pan
制造商 SPXS
平台类型 Starlink V2M
阶段状态 In Orbit
所有者/国家 SPXS/US

Most Searched